• Em Portugal
  • Lista de países
  • Para 7 dias
  • Temperatura da água
  • Mapas de satélite
  • Mapa do tempo
  • Widgets de tempo
  • user-avatar
    Iniciar Sessão

    Previsão horária em Agadez

    Hoje, 22 Janeiro, Segunda-feira

    Tempo Temperatura Precipitação Vento Pressão Humidade
    00:00 +21°C° 0 mm 7 m/s 719 mmHg 12%
    01:00 +20°C° 0 mm 7 m/s 719 mmHg 14%
    02:00 +20°C° 0 mm 7 m/s 718 mmHg 15%
    03:00 +18°C° 0 mm 7 m/s 718 mmHg 16%
    04:00 +18°C° 0 mm 7 m/s 718 mmHg 17%
    05:00 +18°C° 0 mm 7 m/s 718 mmHg 18%
    06:00 +17°C° 0 mm 7 m/s 719 mmHg 20%
    07:00 +17°C° 0 mm 7 m/s 719 mmHg 21%
    08:00 +20°C° 0 mm 8 m/s 719 mmHg 18%
    09:00 +21°C° 0 mm 9 m/s 720 mmHg 16%
    10:00 +23°C° 0 mm 9 m/s 720 mmHg 14%
    11:00 +26°C° 0 mm 8 m/s 720 mmHg 13%
    12:00 +27°C° 0 mm 8 m/s 719 mmHg 11%
    13:00 +29°C° 0 mm 7 m/s 719 mmHg 10%
    14:00 +29°C° 0 mm 7 m/s 719 mmHg 9%
    15:00 +29°C° 0 mm 6 m/s 718 mmHg 9%
    16:00 +29°C° 0 mm 6 m/s 718 mmHg 9%
    17:00 +27°C° 0 mm 6 m/s 718 mmHg 10%
    18:00 +24°C° 0 mm 6 m/s 718 mmHg 11%
    19:00 +23°C° 0 mm 6 m/s 718 mmHg 12%
    20:00 +22°C° 0 mm 7 m/s 718 mmHg 13%
    21:00 +21°C° 0 mm 7 m/s 719 mmHg 14%
    22:00 +20°C° 0 mm 7 m/s 719 mmHg 15%
    23:00 +18°C° 0 mm 7 m/s 719 mmHg 15%

    Amanhã, 23 Janeiro, Terça-feira

    Tempo Temperatura Precipitação Vento Pressão Humidade
    00:00 +18°C° 0 mm 7 m/s 719 mmHg 15%
    01:00 +18°C° 0 mm 7 m/s 719 mmHg 15%
    02:00 +17°C° 0 mm 7 m/s 719 mmHg 16%
    03:00 +17°C° 0 mm 7 m/s 718 mmHg 16%
    04:00 +16°C° 0 mm 6 m/s 718 mmHg 17%
    05:00 +16°C° 0 mm 6 m/s 718 mmHg 18%
    06:00 +15°C° 0 mm 7 m/s 718 mmHg 19%
    07:00 +15°C° 0 mm 7 m/s 718 mmHg 20%
    08:00 +17°C° 0 mm 8 m/s 719 mmHg 17%
    09:00 +20°C° 0 mm 8 m/s 720 mmHg 15%
    10:00 +22°C° 0 mm 9 m/s 720 mmHg 12%
    11:00 +24°C° 0 mm 9 m/s 720 mmHg 10%
    12:00 +27°C° 0 mm 9 m/s 720 mmHg 9%
    13:00 +28°C° 0 mm 9 m/s 719 mmHg 7%
    14:00 +28°C° 0 mm 9 m/s 719 mmHg 7%
    15:00 +28°C° 0 mm 8 m/s 718 mmHg 7%
    16:00 +29°C° 0 mm 8 m/s 717 mmHg 7%
    17:00 +27°C° 0 mm 7 m/s 718 mmHg 9%
    18:00 +24°C° 0 mm 6 m/s 718 mmHg 11%
    19:00 +22°C° 0 mm 6 m/s 718 mmHg 12%
    20:00 +21°C° 0 mm 6 m/s 718 mmHg 13%
    21:00 +20°C° 0 mm 6 m/s 719 mmHg 14%
    22:00 +20°C° 0 mm 7 m/s 719 mmHg 15%
    23:00 +18°C° 0 mm 7 m/s 719 mmHg 16%

    Depois de amanhã, 24 Janeiro, Quarta-feira

    Tempo Temperatura Precipitação Vento Pressão Humidade
    00:00 +18°C° 0 mm 7 m/s 719 mmHg 16%
    01:00 +17°C° 0 mm 7 m/s 719 mmHg 17%
    02:00 +17°C° 0 mm 7 m/s 718 mmHg 17%
    03:00 +17°C° 0 mm 7 m/s 718 mmHg 18%
    04:00 +17°C° 0 mm 7 m/s 718 mmHg 18%
    05:00 +16°C° 0 mm 7 m/s 718 mmHg 19%
    06:00 +16°C° 0 mm 7 m/s 718 mmHg 21%
    07:00 +16°C° 0 mm 7 m/s 718 mmHg 22%
    08:00 +18°C° 0 mm 8 m/s 719 mmHg 20%
    09:00 +21°C° 0 mm 9 m/s 719 mmHg 18%
    10:00 +23°C° 0 mm 10 m/s 720 mmHg 16%
    11:00 +24°C° 0 mm 9 m/s 720 mmHg 15%
    12:00 +27°C° 0 mm 8 m/s 719 mmHg 13%
    13:00 +28°C° 0 mm 8 m/s 719 mmHg 11%
    14:00 +28°C° 0 mm 7 m/s 718 mmHg 11%
    15:00 +28°C° 0 mm 7 m/s 717 mmHg 11%
    16:00 +29°C° 0 mm 6 m/s 717 mmHg 11%
    17:00 +27°C° 0 mm 6 m/s 717 mmHg 13%
    18:00 +24°C° 0 mm 6 m/s 717 mmHg 16%
    19:00 +22°C° 0 mm 5 m/s 717 mmHg 18%
    20:00 +22°C° 0 mm 6 m/s 718 mmHg 20%
    21:00 +21°C° 0 mm 6 m/s 718 mmHg 22%
    22:00 +20°C° 0 mm 6 m/s 719 mmHg 24%
    23:00 +20°C° 0 mm 6 m/s 718 mmHg 25%

    25 Janeiro, Quinta-feira

    Tempo Temperatura Precipitação Vento Pressão Humidade
    00:00 +19°C° 0 mm 6 m/s 718 mmHg 26%
    01:00 +19°C° 0 mm 6 m/s 718 mmHg 27%
    02:00 +19°C° 0 mm 6 m/s 718 mmHg 28%
    03:00 +17°C° 0 mm 6 m/s 717 mmHg 29%
    04:00 +17°C° 0 mm 6 m/s 717 mmHg 29%
    05:00 +17°C° 0 mm 6 m/s 717 mmHg 30%
    06:00 +16°C° 0 mm 6 m/s 718 mmHg 31%
    07:00 +16°C° 0 mm 7 m/s 718 mmHg 32%
    08:00 +18°C° 0 mm 8 m/s 718 mmHg 29%
    09:00 +21°C° 0 mm 9 m/s 719 mmHg 27%
    10:00 +23°C° 0 mm 10 m/s 720 mmHg 24%
    11:00 +24°C° 0 mm 9 m/s 719 mmHg 21%
    12:00 +27°C° 0 mm 8 m/s 719 mmHg 18%
    13:00 +28°C° 0 mm 8 m/s 718 mmHg 15%
    14:00 +28°C° 0 mm 7 m/s 717 mmHg 15%
    15:00 +28°C° 0 mm 7 m/s 717 mmHg 14%
    16:00 +28°C° 0 mm 7 m/s 716 mmHg 14%
    17:00 +27°C° 0 mm 6 m/s 717 mmHg 17%
    18:00 +24°C° 0 mm 6 m/s 717 mmHg 19%
    19:00 +22°C° 0 mm 6 m/s 717 mmHg 21%
    20:00 +22°C° 0 mm 6 m/s 718 mmHg 22%
    21:00 +21°C° 0 mm 6 m/s 718 mmHg 23%
    22:00 +20°C° 0 mm 7 m/s 719 mmHg 25%
    23:00 +20°C° 0 mm 7 m/s 718 mmHg 25%

    26 Janeiro, Sexta-feira

    Tempo Temperatura Precipitação Vento Pressão Humidade
    00:00 +20°C° 0 mm 7 m/s 718 mmHg 26%
    01:00 +18°C° 0 mm 7 m/s 718 mmHg 27%
    02:00 +18°C° 0 mm 7 m/s 718 mmHg 28%
    03:00 +17°C° 0 mm 7 m/s 717 mmHg 28%
    04:00 +17°C° 0 mm 6 m/s 717 mmHg 29%
    05:00 +17°C° 0 mm 7 m/s 717 mmHg 30%
    06:00 +16°C° 0 mm 7 m/s 718 mmHg 30%
    07:00 +16°C° 0 mm 7 m/s 718 mmHg 31%
    08:00 +18°C° 0 mm 8 m/s 718 mmHg 28%
    09:00 +21°C° 0 mm 9 m/s 719 mmHg 25%
    10:00 +22°C° 0 mm 10 m/s 720 mmHg 23%
    11:00 +24°C° 0 mm 9 m/s 719 mmHg 21%
    12:00 +26°C° 0 mm 8 m/s 718 mmHg 19%
    13:00 +27°C° 0 mm 8 m/s 718 mmHg 17%
    14:00 +27°C° 0 mm 8 m/s 717 mmHg 16%
    15:00 +28°C° 0 mm 7 m/s 717 mmHg 16%
    16:00 +28°C° 0 mm 7 m/s 716 mmHg 16%
    17:00 +26°C° 0 mm 6 m/s 717 mmHg 18%
    18:00 +24°C° 0 mm 6 m/s 717 mmHg 20%
    19:00 +22°C° 0 mm 6 m/s 717 mmHg 22%
    20:00 +21°C° 0 mm 6 m/s 717 mmHg 23%
    21:00 +21°C° 0 mm 6 m/s 718 mmHg 24%
    22:00 +20°C° 0 mm 6 m/s 718 mmHg 26%
    23:00 +19°C° 0 mm 6 m/s 718 mmHg 26%

    27 Janeiro, Sábado

    Tempo Temperatura Precipitação Vento Pressão Humidade
    00:00 +19°C° 0 mm 6 m/s 718 mmHg 27%
    01:00 +19°C° 0 mm 6 m/s 718 mmHg 28%
    02:00 +17°C° 0 mm 6 m/s 717 mmHg 28%
    03:00 +17°C° 0 mm 6 m/s 717 mmHg 29%
    04:00 +16°C° 0 mm 6 m/s 717 mmHg 29%
    05:00 +16°C° 0 mm 6 m/s 717 mmHg 30%
    06:00 +16°C° 0 mm 6 m/s 717 mmHg 30%
    07:00 +16°C° 0 mm 6 m/s 718 mmHg 30%
    08:00 +18°C° 0 mm 7 m/s 718 mmHg 27%
    09:00 +21°C° 0 mm 8 m/s 718 mmHg 24%
    10:00 +23°C° 0 mm 8 m/s 719 mmHg 20%
    11:00 +24°C° 0 mm 8 m/s 718 mmHg 18%
    12:00 +26°C° 0 mm 7 m/s 718 mmHg 16%
    13:00 +28°C° 0 mm 7 m/s 717 mmHg 14%
    14:00 +28°C° 0 mm 6 m/s 717 mmHg 14%
    15:00 +29°C° 0 mm 5 m/s 716 mmHg 13%
    16:00 +29°C° 0 mm 5 m/s 716 mmHg 12%
    17:00 +27°C° 0 mm 4 m/s 716 mmHg 14%
    18:00 +26°C° 0 mm 4 m/s 716 mmHg 16%
    19:00 +23°C° 0 mm 4 m/s 716 mmHg 17%
    20:00 +22°C° 0 mm 4 m/s 716 mmHg 18%
    21:00 +21°C° 0 mm 5 m/s 717 mmHg 20%
    22:00 +20°C° 0 mm 5 m/s 717 mmHg 21%
    23:00 +20°C° 0 mm 5 m/s 717 mmHg 22%
    Mostrar mais